Wind_Speed
2 3 3 3 3 2 2 1 2 2 2 2 2 2 3 3 4 4 4 4 4 4 4 5 5 5 6 6 5 5 5 5 5 5 5 5 5 5 5 5 5 5 6 6 6 7 7 8 8
2 3 4 4 3 3 3 3 2 2 3 3 3 3 4 4 4 5 5 5 5 5 5 6 6 6 6 6 6 6 6 7 6 6 6 6 6 6 6 6 6 6 7 7 7 8 8 9 9
3 3 4 4 3 3 3 4 4 4 4 4 4 4 4 4 5 6 6 6 5 6 6 6 7 6 6 7 7 7 7 7 7 7 6 7 7 7 7 6 7 7 8 8 8 9 9 9 9
4 4 5 4 3 3 3 4 4 5 5 5 5 5 5 5 6 6 6 6 6 7 7 7 7 7 7 7 7 7 7 7 7 7 7 7 8 8 8 7 7 7 8 9 9 9 9 10 10
5 5 5 5 4 4 4 4 5 5 5 5 6 6 6 6 7 7 7 7 7 7 7 8 8 7 7 7 7 7 7 7 8 8 8 8 9 9 8 8 8 8 8 8 9 9 9 10 10
6 6 6 5 6 6 5 6 6 6 6 6 7 7 8 8 8 8 9 8 8 8 8 8 8 8 8 8 8 8 8 8 8 8 9 9 9 10 10 9 9 8 8 8 8 9 9 9 10
7 7 7 7 7 7 7 7 8 8 8 8 8 8 9 9 9 9 9 9 9 9 9 8 9 8 8 8 8 8 8 8 8 8 9 9 10 10 10 10 9 8 8 8 8 8 8 8 8
8 9 8 8 8 7 8 9 8 8 8 9 9 9 9 10 10 9 9 9 9 9 9 9 9 9 8 8 8 8 8 8 9 9 9 9 10 10 10 10 9 9 8 8 8 8 7 7 7
9 9 8 8 8 8 9 9 9 9 8 8 9 9 9 10 10 9 9 9 8 9 9 9 9 8 8 8 8 8 8 9 9 9 10 9 9 9 8 9 8 8 8 7 8 8 7 7 7
10 10 9 9 9 9 9 9 9 9 8 9 9 9 9 10 10 10 10 9 8 8 9 8 8 8 8 7 8 8 8 9 9 9 10 9 9 8 8 8 8 8 8 8 7 7 7 6 6
11 11 10 10 10 10 9 10 9 9 9 9 9 9 9 10 10 10 9 9 7 8 8 8 7 7 7 8 8 7 7 8 8 8 9 8 8 8 8 8 8 8 8 8 7 7 6 6 6
11 11 11 11 11 10 10 10 10 10 9 9 9 9 9 9 9 9 8 8 7 7 8 7 7 7 7 8 7 7 7 7 7 7 7 7 7 7 8 8 8 8 8 7 7 7 6 6 6
12 11 11 11 11 11 10 9 10 10 10 9 9 8 8 9 9 9 8 7 7 7 7 7 7 7 8 7 7 7 7 7 7 7 6 6 6 6 7 7 7 8 7 7 7 6 6 6 5
12 12 12 11 11 11 10 10 10 10 10 9 9 9 9 10 9 9 8 7 8 8 7 7 7 7 7 7 7 8 8 7 7 7 7 6 6 6 6 6 6 6 6 5 6 5 5 5 4
12 12 11 11 11 10 10 10 10 10 10 10 10 10 10 10 9 9 9 8 8 8 8 8 7 7 7 7 7 7 8 7 7 6 7 7 6 6 6 5 5 5 4 4 4 5 4 4 4
12 12 11 11 11 11 10 11 11 11 10 10 11 11 11 10 10 10 10 9 9 9 8 8 8 8 7 7 6 7 7 6 6 7 7 6 6 5 5 5 4 4 3 3 4 4 4 4 3
13 12 12 12 12 12 12 11 11 11 11 11 11 11 11 11 11 11 10 10 10 9 9 9 9 8 7 6 6 7 5 5 6 6 5 5 5 4 4 4 4 3 3 3 4 4 4 3 3
13 13 12 12 12 12 13 12 12 12 12 12 12 12 11 11 11 11 11 11 10 10 9 9 10 8 7 7 7 6 6 5 5 5 4 4 4 4 4 4 3 3 3 4 4 3 3 2 2
13 12 12 12 13 13 12 13 13 13 13 13 12 12 12 12 12 11 11 11 10 9 9 9 9 9 7 7 6 6 6 5 5 5 5 4 4 4 4 4 3 3 3 4 3 3 3 2 2
13 13 12 12 13 13 13 13 13 12 13 12 12 11 12 12 12 11 11 11 10 9 9 9 8 9 8 7 7 6 6 6 5 5 5 4 4 4 4 3 4 4 4 4 3 3 2 2 1
14 14 13 13 13 14 13 12 13 12 12 12 11 11 11 12 12 11 11 11 11 10 9 9 9 8 8 7 7 7 6 6 5 5 5 5 5 5 4 4 4 4 4 3 3 3 2 2 2
15 14 14 14 14 13 14 12 12 13 12 11 12 11 11 11 12 12 12 12 12 11 11 10 10 9 8 7 7 7 7 6 6 5 5 5 5 5 4 4 4 4 3 3 3 3 2 2 2
15 15 16 16 15 14 13 13 11 12 12 11 12 12 12 12 12 12 12 12 12 12 11 11 10 10 9 8 8 7 6 6 5 5 5 4 4 4 5 4 4 4 4 4 3 3 2 2 2
17 17 17 17 17 15 13 13 10 11 11 12 12 12 12 12 12 12 12 11 11 11 11 11 10 10 10 10 9 8 8 7 6 6 6 6 5 4 4 4 5 4 4 4 3 3 3 2 2
19 18 18 17 17 15 14 14 11 11 11 12 12 12 12 12 12 11 11 11 11 11 11 10 10 9 10 10 9 8 8 8 8 7 7 7 6 6 5 5 5 5 4 4 4 3 3 3 2
19 19 18 18 17 16 15 14 12 11 12 13 12 12 13 12 12 11 12 11 11 11 10 10 9 8 9 10 10 8 8 8 8 8 7 7 7 7 6 6 6 5 5 5 4 4 3 3 3
20 20 19 19 18 17 16 14 12 12 13 13 13 13 12 12 12 12 12 11 10 10 10 9 9 9 9 9 9 9 9 9 8 8 8 8 8 7 7 6 6 5 5 5 5 5 4 4 4
20 20 20 20 19 18 17 14 12 12 13 13 13 13 13 12 12 11 11 10 9 9 9 9 9 9 9 9 9 10 10 9 9 9 9 8 8 7 7 7 6 6 6 6 5 5 4 4 4
21 21 20 20 20 18 17 14 13 13 13 13 13 13 13 12 11 11 10 10 9 8 8 8 9 8 9 10 10 10 10 10 10 10 10 10 9 8 8 8 7 7 6 6 6 6 6 5 5
22 21 20 20 19 19 18 16 14 13 14 13 13 13 12 12 11 10 10 10 9 8 7 8 8 9 9 10 11 11 11 11 11 11 11 11 10 10 9 8 8 7 7 6 6 6 6 6 5
Wind_Direction
355 346 348 353 355 353 343 350 351 347 360 354 343 340 337 347 346 334 335 335 334 330 327 325 318 306 297 291 288 289 289 292 293 290 292 300 297 293 290 284 281 279 281 277 278 278 277 276 273
335 331 336 342 348 356 354 334 328 324 338 333 330 326 325 334 334 329 328 326 325 319 318 318 310 304 296 289 284 281 283 284 282 282 283 288 290 289 280 279 279 279 280 276 279 277 277 276 275
322 322 323 327 337 333 327 322 325 321 320 320 318 325 325 329 326 321 322 322 318 312 308 308 306 298 294 292 286 282 281 280 276 277 277 278 280 282 280 280 277 276 277 275 277 275 276 276 276
309 313 314 316 317 313 303 304 310 309 311 316 317 319 320 319 315 314 315 318 312 305 301 299 300 299 294 296 291 283 278 278 275 273 275 275 275 274 276 278 276 280 277 274 273 273 273 275 276
301 305 308 309 304 299 291 292 300 312 310 313 313 308 310 312 309 309 308 307 304 300 297 292 296 296 293 291 288 282 279 276 274 271 274 273 272 270 274 277 277 279 275 271 267 270 272 272 274
293 298 298 302 300 294 289 290 300 304 305 307 308 306 304 307 305 303 303 300 298 297 295 290 290 291 290 289 287 283 278 275 274 272 273 273 275 276 275 275 277 280 277 275 273 270 274 277 275
290 292 294 300 301 297 294 297 298 296 297 302 305 304 302 305 303 302 298 296 294 294 293 294 292 290 290 287 285 282 279 275 272 273 273 272 272 272 271 268 270 277 277 276 277 274 277 282 281
289 293 294 297 301 301 297 298 300 302 297 298 301 302 301 305 302 297 294 294 294 295 293 297 294 292 290 288 288 282 278 276 274 272 273 273 272 271 266 264 265 268 271 272 273 273 279 286 285
286 291 294 296 299 302 301 299 301 302 301 301 302 302 305 304 307 302 298 297 297 296 295 295 293 293 292 289 285 281 280 276 273 273 275 277 275 270 267 262 262 265 269 271 270 270 274 278 280
284 289 291 292 294 298 299 298 300 303 305 304 304 303 305 308 309 308 306 302 300 299 297 294 290 289 288 290 287 281 281 277 274 274 276 277 272 268 267 264 263 263 264 267 266 268 269 269 275
282 287 288 288 290 294 296 298 300 301 307 304 304 305 306 310 309 311 312 306 304 302 297 296 294 293 287 286 287 281 280 280 279 274 273 272 266 264 264 264 264 264 261 262 260 263 265 267 275
280 284 287 290 293 294 296 299 299 301 303 305 308 309 309 310 311 313 313 310 308 304 299 298 297 293 291 288 281 280 282 282 283 280 276 271 265 261 264 267 261 257 254 255 254 258 261 265 270
276 281 283 286 289 293 293 296 299 299 303 304 308 311 311 311 313 310 307 307 308 304 301 299 297 291 290 284 277 274 280 282 285 281 276 276 267 262 266 265 259 252 245 251 255 252 254 257 260
273 278 281 281 288 290 291 292 298 300 304 305 306 309 308 307 307 307 304 303 303 300 297 297 296 289 283 279 281 278 280 279 279 277 272 274 268 264 266 266 263 253 244 250 242 240 240 249 255
272 274 277 281 285 289 290 291 295 297 301 303 304 303 303 300 299 300 301 301 297 294 290 295 297 292 285 285 290 290 285 284 277 272 270 270 268 264 263 265 255 245 242 241 228 224 228 243 253
269 272 274 280 283 285 290 290 292 293 296 299 299 299 298 296 295 294 294 295 295 288 284 289 290 288 285 288 292 294 289 283 279 271 269 267 259 254 255 253 244 237 235 225 219 220 231 239 246
267 270 272 277 281 284 287 289 290 290 293 295 295 296 296 295 296 293 289 289 289 290 286 282 282 281 278 285 289 292 289 282 282 276 268 262 245 242 246 246 235 227 222 210 212 223 233 236 237
267 269 271 275 279 283 285 286 286 287 289 291 291 293 294 291 292 291 290 285 284 285 286 282 276 274 272 277 282 286 289 281 276 270 259 250 240 241 237 229 224 209 202 201 212 223 225 235 244
265 267 269 271 276 281 283 283 284 285 285 285 287 288 291 290 291 289 287 285 281 281 283 284 277 271 270 269 271 276 282 274 265 262 255 242 231 235 228 214 204 196 193 195 203 204 210 225 247
262 265 266 268 275 279 282 283 285 284 283 282 283 286 288 289 292 291 286 281 278 279 281 281 282 272 267 265 261 266 269 261 255 252 240 228 222 223 216 213 201 194 192 192 197 201 212 228 226
261 262 264 267 270 275 279 279 283 283 281 282 280 281 285 287 289 289 285 280 277 278 278 277 277 275 268 261 254 254 257 248 246 243 231 224 220 221 222 210 193 182 181 189 199 209 216 223 226
259 262 263 267 269 272 277 276 279 282 281 280 279 280 283 284 286 286 286 281 279 277 274 273 271 269 262 254 252 248 247 244 241 234 223 221 220 216 216 200 188 186 185 194 206 207 205 212 222
257 260 263 267 269 270 275 277 277 279 281 280 280 280 284 285 286 287 287 283 279 276 273 269 267 262 258 253 246 241 239 235 230 226 216 214 215 217 218 204 194 194 194 196 202 207 210 218 235
255 259 262 265 267 268 274 276 275 279 280 280 283 282 286 289 288 286 285 284 279 273 270 266 264 260 253 249 242 237 230 226 225 223 219 217 218 216 213 205 199 201 199 201 205 215 222 235 245
253 256 260 262 265 269 270 271 273 278 279 282 287 289 288 290 288 285 283 284 280 274 267 264 262 256 248 241 235 230 224 220 222 223 220 219 219 220 217 211 208 209 205 207 215 223 226 238 250
253 256 259 263 266 268 267 270 271 273 277 281 285 290 291 289 285 283 284 284 279 273 266 262 259 252 244 240 233 224 220 221 224 223 219 217 219 221 218 214 213 212 212 216 227 232 238 245 244
252 253 257 262 265 267 267 268 265 270 275 280 284 287 289 287 284 283 283 283 276 270 264 257 251 244 236 232 227 223 223 226 226 223 220 217 219 221 219 216 215 216 216 223 232 234 244 248 251
252 253 255 259 263 265 265 266 268 272 274 277 280 285 286 285 283 282 283 281 273 266 258 249 243 236 227 223 224 226 227 229 228 222 222 220 219 219 218 216 218 224 227 231 235 242 243 247 258
250 251 253 256 260 263 265 266 269 273 275 277 281 284 284 282 281 282 280 278 270 261 253 247 240 233 226 224 227 229 231 229 226 225 224 224 221 222 225 223 225 229 231 232 238 243 248 254 259
249 251 253 254 257 261 264 266 266 271 273 274 278 281 281 279 278 276 274 274 264 257 252 246 238 235 230 226 231 232 232 231 231 228 227 226 226 227 227 224 226 233 237 235 237 244 250 256 257
Height
5881 5881 5881 5882 5883 5882 5881 5881 5881 5881 5881 5881 5880 5880 5880 5880 5881 5883 5881 5879 5879 5878 5878 5878 5877 5877 5876 5876 5875 5875 5875 5875 5875 5875 5875 5875 5875 5875 5876 5876 5876 5877 5877 5878 5878 5878 5878 5878 5878
5881 5882 5883 5883 5882 5882 5882 5882 5881 5881 5881 5880 5880 5880 5879 5879 5879 5879 5878 5878 5878 5877 5877 5877 5876 5876 5875 5875 5874 5874 5874 5874 5874 5874 5874 5874 5874 5874 5874 5874 5875 5875 5876 5876 5876 5876 5876 5877 5877
5881 5882 5883 5883 5882 5882 5882 5882 5881 5881 5880 5880 5879 5879 5879 5879 5878 5878 5878 5877 5877 5877 5876 5876 5875 5874 5874 5873 5873 5873 5873 5873 5873 5873 5873 5873 5873 5873 5873 5873 5873 5874 5874 5875 5875 5875 5875 5875 5875
5882 5883 5883 5883 5882 5882 5882 5882 5881 5880 5880 5879 5879 5878 5878 5878 5877 5877 5877 5876 5876 5876 5875 5875 5874 5873 5873 5872 5872 5871 5871 5871 5871 5871 5871 5871 5871 5871 5871 5872 5872 5872 5873 5873 5873 5873 5873 5873 5873
5882 5882 5883 5882 5881 5881 5881 5881 5880 5879 5879 5879 5878 5878 5877 5877 5876 5875 5875 5875 5875 5874 5874 5873 5872 5872 5871 5871 5870 5869 5869 5869 5869 5869 5869 5869 5869 5869 5870 5870 5870 5870 5870 5871 5871 5871 5870 5870 5870
5882 5882 5882 5881 5881 5881 5880 5880 5879 5879 5878 5878 5877 5877 5876 5875 5875 5874 5874 5873 5873 5873 5872 5871 5871 5870 5869 5869 5868 5868 5868 5867 5868 5868 5868 5867 5867 5867 5867 5868 5868 5868 5869 5869 5869 5868 5868 5868 5868
5881 5881 5880 5880 5880 5880 5880 5879 5878 5878 5877 5877 5876 5876 5875 5874 5873 5873 5872 5871 5871 5871 5870 5869 5869 5868 5868 5867 5866 5866 5866 5866 5866 5866 5865 5865 5865 5865 5866 5866 5866 5867 5867 5867 5867 5867 5866 5866 5866
5879 5880 5879 5879 5879 5879 5878 5878 5877 5877 5876 5876 5875 5874 5874 5873 5872 5871 5870 5870 5869 5869 5868 5867 5867 5866 5866 5865 5865 5864 5864 5864 5864 5864 5863 5863 5863 5863 5863 5864 5864 5865 5865 5865 5865 5865 5865 5865 5865
5878 5879 5878 5878 5878 5877 5877 5876 5876 5875 5875 5874 5874 5873 5872 5871 5870 5869 5868 5868 5867 5867 5866 5865 5865 5864 5864 5863 5863 5862 5862 5862 5862 5862 5861 5861 5861 5861 5861 5862 5862 5863 5863 5863 5863 5863 5863 5863 5863
5876 5877 5876 5876 5876 5876 5875 5875 5875 5874 5873 5873 5872 5871 5870 5869 5868 5868 5867 5866 5865 5865 5864 5864 5863 5863 5862 5862 5861 5860 5860 5860 5860 5860 5859 5859 5859 5859 5860 5860 5860 5861 5861 5861 5861 5862 5862 5862 5862
5874 5874 5874 5874 5874 5874 5874 5873 5873 5872 5872 5871 5871 5870 5869 5868 5867 5866 5865 5864 5864 5863 5862 5862 5861 5861 5860 5860 5859 5859 5858 5858 5858 5858 5857 5857 5857 5858 5858 5858 5859 5859 5859 5860 5860 5860 5860 5861 5861
5872 5872 5872 5872 5872 5872 5872 5871 5871 5870 5870 5869 5869 5868 5867 5867 5866 5865 5864 5863 5862 5861 5861 5860 5860 5859 5859 5858 5858 5857 5856 5856 5856 5855 5855 5855 5855 5856 5856 5856 5856 5857 5857 5858 5858 5858 5859 5859 5859
5870 5870 5870 5870 5870 5870 5870 5870 5869 5869 5868 5867 5867 5866 5866 5865 5864 5863 5862 5861 5861 5860 5859 5859 5858 5857 5857 5857 5856 5856 5855 5855 5854 5854 5853 5854 5854 5854 5854 5854 5855 5855 5856 5856 5856 5857 5857 5858 5858
5868 5868 5868 5868 5868 5868 5868 5868 5868 5867 5866 5866 5865 5865 5864 5864 5863 5862 5861 5860 5859 5859 5858 5857 5857 5856 5855 5855 5855 5854 5853 5853 5852 5852 5852 5852 5852 5853 5853 5853 5853 5854 5854 5854 5855 5855 5856 5856 5857
5866 5867 5867 5866 5867 5867 5867 5867 5866 5865 5865 5864 5864 5863 5863 5862 5861 5860 5859 5858 5858 5857 5856 5855 5855 5854 5854 5853 5853 5852 5851 5851 5851 5851 5851 5851 5851 5851 5851 5852 5852 5852 5853 5853 5853 5854 5855 5855 5856
5864 5865 5865 5865 5865 5865 5866 5865 5864 5863 5863 5863 5862 5861 5861 5860 5859 5858 5858 5857 5856 5855 5854 5854 5853 5852 5852 5851 5851 5850 5850 5850 5849 5849 5849 5849 5849 5850 5850 5851 5851 5852 5852 5852 5853 5853 5854 5855 5855
5861 5862 5862 5863 5862 5862 5863 5863 5862 5861 5861 5861 5860 5859 5859 5858 5857 5856 5856 5855 5854 5853 5852 5852 5851 5851 5850 5850 5849 5849 5848 5848 5848 5848 5848 5848 5848 5849 5849 5850 5850 5851 5851 5852 5852 5853 5853 5854 5854
5859 5860 5860 5860 5860 5860 5860 5860 5860 5859 5859 5859 5858 5857 5856 5856 5855 5854 5853 5853 5852 5851 5850 5850 5849 5849 5849 5848 5848 5848 5847 5847 5847 5847 5847 5847 5847 5848 5848 5849 5849 5850 5851 5851 5852 5852 5853 5853 5854
5856 5857 5857 5858 5857 5857 5857 5857 5857 5857 5856 5856 5855 5855 5854 5853 5852 5852 5851 5850 5850 5849 5848 5848 5847 5847 5846 5847 5846 5846 5846 5846 5846 5846 5846 5846 5847 5847 5848 5848 5849 5849 5850 5851 5852 5852 5853 5853 5853
5853 5854 5855 5855 5854 5854 5855 5855 5854 5854 5854 5853 5853 5852 5851 5851 5850 5849 5849 5848 5847 5847 5846 5845 5845 5845 5844 5844 5845 5845 5844 5845 5845 5845 5845 5845 5846 5847 5847 5848 5848 5849 5850 5851 5851 5852 5853 5853 5853
5850 5851 5852 5852 5852 5851 5852 5853 5852 5851 5851 5851 5850 5849 5849 5848 5847 5847 5846 5845 5845 5844 5844 5843 5843 5843 5842 5842 5842 5843 5843 5843 5844 5844 5844 5845 5845 5846 5847 5847 5848 5849 5849 5850 5851 5852 5852 5852 5853
5847 5848 5848 5848 5848 5849 5850 5850 5850 5848 5848 5848 5847 5847 5846 5845 5845 5844 5843 5842 5842 5842 5841 5841 5840 5840 5840 5840 5841 5841 5842 5842 5843 5843 5843 5844 5845 5845 5846 5847 5848 5849 5849 5850 5851 5851 5852 5852 5852
5844 5844 5844 5845 5845 5846 5846 5846 5848 5846 5846 5845 5845 5844 5843 5843 5842 5841 5840 5839 5839 5838 5838 5838 5838 5838 5838 5838 5839 5839 5840 5841 5841 5842 5843 5843 5844 5845 5846 5847 5847 5848 5849 5850 5850 5851 5851 5852 5852
5839 5840 5841 5841 5841 5843 5844 5843 5845 5843 5843 5842 5842 5841 5841 5840 5839 5838 5837 5837 5836 5835 5835 5835 5835 5835 5836 5836 5837 5838 5838 5839 5840 5841 5842 5843 5843 5844 5845 5846 5847 5848 5849 5849 5850 5850 5851 5851 5852
5835 5837 5837 5837 5837 5839 5840 5840 5842 5841 5840 5839 5839 5838 5838 5837 5836 5835 5834 5834 5833 5832 5832 5832 5833 5833 5833 5834 5835 5836 5837 5838 5839 5840 5841 5842 5843 5844 5845 5846 5846 5847 5848 5849 5849 5850 5850 5851 5851
5831 5832 5834 5834 5834 5835 5836 5837 5839 5838 5837 5836 5836 5835 5835 5834 5833 5832 5831 5831 5830 5829 5829 5830 5830 5830 5831 5832 5833 5834 5835 5837 5838 5838 5840 5841 5842 5843 5844 5845 5846 5847 5847 5848 5849 5849 5849 5850 5850
5826 5827 5829 5830 5830 5831 5832 5834 5835 5834 5834 5833 5833 5832 5831 5831 5830 5829 5828 5827 5827 5826 5826 5827 5827 5828 5829 5830 5831 5833 5834 5835 5836 5837 5838 5840 5841 5842 5843 5844 5845 5846 5847 5847 5848 5848 5849 5849 5850
5822 5824 5824 5825 5825 5826 5828 5830 5831 5831 5830 5830 5829 5829 5828 5827 5826 5826 5825 5824 5824 5824 5824 5824 5825 5826 5827 5828 5830 5831 5832 5833 5835 5836 5837 5838 5840 5841 5842 5843 5844 5845 5846 5846 5847 5847 5848 5848 5848
5817 5818 5819 5820 5821 5822 5824 5828 5828 5827 5827 5827 5826 5825 5825 5824 5823 5823 5822 5822 5821 5821 5822 5823 5823 5824 5825 5826 5828 5829 5830 5832 5833 5834 5835 5837 5838 5840 5841 5842 5843 5844 5844 5845 5846 5846 5847 5847 5847
5812 5813 5815 5816 5817 5818 5820 5825 5823 5823 5823 5823 5822 5822 5821 5821 5820 5820 5819 5819 5819 5819 5820 5820 5821 5822 5823 5824 5825 5827 5828 5830 5831 5832 5834 5835 5837 5838 5840 5841 5842 5842 5843 5844 5844 5845 5845 5846 5846